STARLINK-5953, 56799

Orbit data source: Space-Track

STARLINK-5953, 56799 is a payload satellite owned by SpaceX/Seattle (US) in LEO that was launched on Wed, 31 May 2023 UTC via an FALCON 9 launch vehicle from the Air Force Western Test Range (AFWTR). Payload-class satellites include a variety of spacecraft equipped with specific instruments for various scientific and technological missions. These include communications satellites like Starlink; space stations such as the ISS; scientific satellites like the Hubble; Earth observation satellites from companies like Planet Labs, Umbra, and HawkEye 360; GPS; miniature CubeSats for education and research; and military/defense satellites.

Loading next visibility...
Identifier
56799, 2023-078AJ
Orbit
LEO
Country
Flag of USUS
Related business
Manufacturer
SpaceX/Seattle
Mission
Operational Commercial Communications
Bus & Motor
STARLINK, Unknown motor
Mass
305 kg wet, ~290 kg dry
Launch date (UTC)
2023-05-31 (3 years ago)
Launch vehicle
FALCON 9
Launch site
Air Force Western Test Range (AFWTR)
Object type
Payload
Rocket body
Debris
Shape & HBR
Box + 1 Pan, 10.1 m
Radar Cross Section
11.087 m², Large (>1 m²)

Expand to show TLE details & history
Last TLE update: 2 days ago

TLE from 2 days ago
0 STARLINK-5953
1 56799U 23078AJ  26171.19317816  .00000407  00000-0  41916-4 0  9995
2 56799  69.9999  86.0299 0003022 269.2955  90.7857 14.98333006168039
Epoch: 2026-06-20T04:38Z
TLE epoch observation values (Epoch: 2026-06-20T04:38:10.593Z)
Latitude
-0.00007°
Longitude
108.07442°
Altitude
574.5 km
Speed
7.574 km/s
True Right ascension
05h 44m 07s
True Declination
0° 00' 00"
Sunlit
Object was in daylight at epoch
Visualization orbit readout
Latitude
Unknown
Longitude
Unknown
Altitude
Unknown
Speed
Unknown
Apparent Right ascension
Unknown
Apparent Declination
Unknown
Sunlit
N/A
Visualization observer readout
Local Sidereal Time
21:43:06
Azimuth
Unknown
Elevation
Unknown
Doppler factor
Unknown
Orbital elements
Apogee altitude
572.095 km
Perigee altitude
567.895 km
Semi-major axis
6,948.132 km
Eccentricity
0.0003
Inclination
69.9999°
RAAN
86.0299°
Arg. of periapsis
269.2955°
True anomaly
90.82033°
Mean anomaly
90.7857°
Eccentric anomaly
90.80301°
Mean motion
3.7475 °/min
Orbital period
96.06 mins
BSTAR
0.000041916
Loading maneuver chart data...
Computing Atmospheric mass density...
Loading historical data...
Loading historical data...
Loading historical data...
Loading historical data...
Loading historical data...
Loading historical data...
Loading historical data...

Documentation

Showing up to 5 results
|